| time (UTC) | temp F | wind direction | speed MPH | gust MPH | rain 1hr in | rain 24hr in | rain mn in | humidity % | barometer mb |
| 20260506143045 | 71 | 69 | 0.0 | 3.0 | 0.02 | 0.05 | 0.05 | 95 | 1012.7 |
| 20260506141550 | 71 | 0 | 0.0 | 2.0 | 0.03 | 0.05 | 0.05 | 94 | 1012.4 |
| 20260506140046 | 71 | 0 | 0.0 | 1.0 | 0.03 | 0.05 | 0.05 | 94 | 1012.3 |
| 20260506134545 | 71 | 0 | 0.0 | 2.0 | 0.03 | 0.04 | 0.04 | 94 | 1012.1 |
| 20260506133040 | 71 | 0 | 1.0 | 9.0 | 0.02 | 0.03 | 0.03 | 94 | 1011.5 |
| 20260506131552 | 71 | 148 | 3.0 | 7.0 | 0.01 | 0.02 | 0.02 | 94 | 1010.7 |
| 20260506130100 | 71 | 142 | 5.0 | 10.0 | 0.01 | 0.02 | 0.02 | 94 | 1010.6 |
| 20260506124553 | 71 | 182 | 1.0 | 4.0 | 0.00 | 0.01 | 0.01 | 94 | 1010.5 |
| 20260506123045 | 71 | 162 | 2.0 | 7.0 | 0.00 | 0.01 | 0.01 | 94 | 1010.3 |
| 20260506121545 | 71 | 169 | 4.0 | 7.0 | 0.00 | 0.01 | 0.01 | 94 | 1010.2 |
| 20260506120046 | 71 | 157 | 5.0 | 11.0 | 0.01 | 0.01 | 0.01 | 93 | 1010.2 |
| 20260506114545 | 71 | 148 | 5.0 | 8.0 | 0.01 | 0.01 | 0.01 | 94 | 1010.2 |
| 20260506113052 | 71 | 156 | 3.0 | 7.0 | 0.01 | 0.01 | 0.01 | 93 | 1010.2 |
| 20260506111545 | 71 | 173 | 3.0 | 7.0 | 0.01 | 0.01 | 0.01 | 93 | 1010.4 |
| 20260506110056 | 71 | 0 | 3.0 | 8.0 | 0.00 | 0.00 | 0.00 | 93 | 1010.6 |
| 20260506104551 | 71 | 156 | 1.0 | 4.0 | 0.00 | 0.00 | 0.00 | 93 | 1010.6 |
| 20260506103050 | 71 | 156 | 2.0 | 7.0 | 0.00 | 0.00 | 0.00 | 93 | 1010.6 |
| 20260506101556 | 71 | 161 | 4.0 | 7.0 | 0.00 | 0.00 | 0.00 | 93 | 1010.3 |
| 20260506100104 | 71 | 169 | 3.0 | 9.0 | 0.00 | 0.00 | 0.00 | 93 | 1010.3 |
| 20260506094543 | 72 | 176 | 4.0 | 9.0 | 0.00 | 0.00 | 0.00 | 93 | 1010.2 |
| 20260506093048 | 72 | 138 | 5.0 | 11.0 | 0.00 | 0.00 | 0.00 | 92 | 1010.2 |
| 20260506091545 | 72 | 156 | 5.0 | 12.0 | 0.00 | 0.00 | 0.00 | 92 | 1010.2 |
| 20260506090045 | 72 | 152 | 7.0 | 12.0 | 0.00 | 0.00 | 0.00 | 92 | 1010.1 |
| 20260506084605 | 72 | 180 | 9.0 | 17.0 | 0.00 | 0.00 | 0.00 | 92 | 1009.9 |
| 20260506083043 | 72 | 155 | 8.0 | 15.0 | 0.00 | 0.00 | 0.00 | 91 | 1009.8 |
| 20260506081553 | 72 | 169 | 9.0 | 17.0 | 0.00 | 0.00 | 0.00 | 90 | 1009.8 |
| 20260506073047 | 73 | 169 | 5.0 | 11.0 | 0.00 | 0.00 | 0.00 | 90 | 1009.9 |
| 20260506071541 | 73 | 150 | 8.0 | 14.0 | 0.00 | 0.00 | 0.00 | 90 | 1010.1 |
| 20260506061545 | 74 | 141 | 7.0 | 11.0 | 0.00 | 0.00 | 0.00 | 88 | 1010.4 |
| 20260506044637 | 73 | 157 | 5.0 | 7.0 | 0.00 | 0.00 | 0.00 | 84 | 1010.4 |
| 20260506043047 | 73 | 153 | 2.0 | 4.0 | 0.00 | 0.00 | 0.00 | 83 | 1010.5 |
| 20260506041558 | 74 | 127 | 2.0 | 3.0 | 0.00 | 0.00 | 0.00 | 83 | 1010.5 |
| 20260506040049 | 74 | 99 | 2.0 | 4.0 | 0.00 | 0.00 | 0.00 | 83 | 1010.3 |
| 20260506034620 | 74 | 122 | 2.0 | 3.0 | 0.00 | 0.00 | 0.00 | 83 | 1010.1 |
| 20260506033051 | 74 | 144 | 2.0 | 3.0 | 0.00 | 0.00 | 0.00 | 82 | 1009.9 |
| 20260506031544 | 74 | 144 | 2.0 | 4.0 | 0.00 | 0.00 | 0.00 | 81 | 1009.9 |
| 20260506030045 | 75 | 128 | 2.0 | 4.0 | 0.00 | 0.00 | 0.00 | 80 | 1009.6 |
| 20260506024547 | 75 | 128 | 2.0 | 5.0 | 0.00 | 0.00 | 0.00 | 80 | 1009.6 |
| 20260506023102 | 75 | 181 | 1.0 | 4.0 | 0.00 | 0.00 | 0.00 | 79 | 1009.3 |
| 20260506021540 | 76 | 149 | 2.0 | 6.0 | 0.00 | 0.00 | 0.00 | 78 | 1008.9 |
| 20260506020047 | 77 | 167 | 2.0 | 7.0 | 0.00 | 0.00 | 0.00 | 77 | 1008.8 |
| 20260506014545 | 78 | 173 | 4.0 | 9.0 | 0.00 | 0.00 | 0.00 | 75 | 1008.5 |
| 20260506013044 | 78 | 143 | 4.0 | 8.0 | 0.00 | 0.00 | 0.00 | 74 | 1008.3 |
| 20260506011549 | 79 | 134 | 4.0 | 8.0 | 0.00 | 0.00 | 0.00 | 72 | 1008.0 |
| 20260506010054 | 80 | 150 | 5.0 | 11.0 | 0.00 | 0.00 | 0.00 | 69 | 1007.7 |
| 20260506004602 | 81 | 162 | 4.0 | 9.0 | 0.00 | 0.00 | 0.00 | 68 | 1007.8 |
| 20260506003101 | 81 | 156 | 6.0 | 13.0 | 0.00 | 0.00 | 0.00 | 66 | 1007.8 |
| 20260506001547 | 82 | 211 | 4.0 | 10.0 | 0.00 | 0.00 | 0.00 | 66 | 1007.9 |
| 20260506000047 | 82 | 135 | 2.0 | 10.0 | 0.00 | 0.00 | 0.00 | 66 | 1007.9 |
| 20260505234604 | 83 | 170 | 1.0 | 10.0 | 0.00 | 0.00 | 0.00 | 65 | 1008.0 |
| 20260505233051 | 83 | 215 | 4.0 | 12.0 | 0.00 | 0.00 | 0.00 | 63 | 1008.0 |
| 20260505231545 | 83 | 222 | 2.0 | 9.0 | 0.00 | 0.00 | 0.00 | 64 | 1007.7 |
| 20260505230050 | 83 | 181 | 5.0 | 12.0 | 0.00 | 0.00 | 0.00 | 64 | 1007.8 |
| 20260505224546 | 83 | 175 | 4.0 | 9.0 | 0.00 | 0.00 | 0.00 | 63 | 1007.7 |
| 20260505223044 | 85 | 221 | 2.0 | 10.0 | 0.00 | 0.00 | 0.00 | 60 | 1007.9 |
| 20260505221546 | 85 | 170 | 3.0 | 8.0 | 0.00 | 0.00 | 0.00 | 61 | 1007.8 |
| 20260505220058 | 85 | 175 | 2.0 | 8.0 | 0.00 | 0.00 | 0.00 | 59 | 1007.8 |
| 20260505214544 | 86 | 179 | 4.0 | 8.0 | 0.00 | 0.00 | 0.00 | 59 | 1008.0 |
| 20260505213039 | 86 | 144 | 3.0 | 7.0 | 0.00 | 0.00 | 0.00 | 58 | 1008.1 |
| 20260505211550 | 86 | 232 | 2.0 | 10.0 | 0.00 | 0.00 | 0.00 | 58 | 1008.3 |
| 20260505210046 | 86 | 218 | 3.0 | 8.0 | 0.00 | 0.00 | 0.00 | 58 | 1008.7 |
| 20260505204547 | 87 | 228 | 3.0 | 9.0 | 0.00 | 0.00 | 0.00 | 57 | 1008.7 |
| 20260505203040 | 87 | 273 | 3.0 | 14.0 | 0.00 | 0.00 | 0.00 | 58 | 1008.7 |
| 20260505201545 | 86 | 180 | 4.0 | 14.0 | 0.00 | 0.00 | 0.00 | 59 | 1008.8 |
| 20260505200048 | 85 | 34 | 5.0 | 12.0 | 0.00 | 0.00 | 0.00 | 59 | 1009.0 |
| 20260505194546 | 85 | 186 | 3.0 | 9.0 | 0.00 | 0.00 | 0.00 | 59 | 1009.1 |
| 20260505193049 | 85 | 320 | 4.0 | 11.0 | 0.00 | 0.00 | 0.00 | 60 | 1009.2 |
| 20260505191554 | 84 | 174 | 3.0 | 15.0 | 0.00 | 0.00 | 0.00 | 60 | 1009.4 |
| 20260505190051 | 83 | 209 | 4.0 | 12.0 | 0.00 | 0.00 | 0.00 | 61 | 1009.7 |
| 20260505184538 | 83 | 219 | 2.0 | 13.0 | 0.00 | 0.00 | 0.00 | 62 | 1009.9 |
| 20260505183046 | 83 | 157 | 3.0 | 10.0 | 0.00 | 0.00 | 0.00 | 62 | 1010.2 |
| 20260505181542 | 84 | 171 | 2.0 | 8.0 | 0.00 | 0.00 | 0.00 | 62 | 1010.4 |
| 20260505180053 | 82 | 223 | 3.0 | 8.0 | 0.00 | 0.00 | 0.00 | 65 | 1010.4 |
| 20260505174605 | 81 | 167 | 1.0 | 7.0 | 0.00 | 0.00 | 0.00 | 67 | 1010.7 |
| 20260505173045 | 80 | 232 | 2.0 | 9.0 | 0.00 | 0.00 | 0.00 | 67 | 1010.9 |
| 20260505171543 | 79 | 218 | 3.0 | 8.0 | 0.00 | 0.00 | 0.00 | 70 | 1010.9 |
| 20260505170108 | 78 | 229 | 3.0 | 9.0 | 0.00 | 0.00 | 0.00 | 73 | 1011.0 |
| 20260505164548 | 75 | 219 | 3.0 | 9.0 | 0.00 | 0.00 | 0.00 | 77 | 1010.9 |
| 20260505163046 | 74 | 212 | 1.0 | 7.0 | 0.00 | 0.00 | 0.00 | 78 | 1010.8 |
| 20260505161543 | 73 | 196 | 4.0 | 9.0 | 0.00 | 0.00 | 0.00 | 79 | 1010.8 |
| 20260505153055 | 70 | 192 | 2.0 | 9.0 | 0.00 | 0.00 | 0.00 | 86 | 1010.7 |
| 20260505151552 | 69 | 173 | 2.0 | 8.0 | 0.00 | 0.00 | 0.00 | 87 | 1010.7 |